This is the latest recevied weather packets stored in our database for station/object 4S6DRJ-13. If no packets are shown the sender has not sent any weather packets the latest 10 day(s).
| Time | Temp. | Humidity | Pressure | Rain* | Wind** | Luminosity | Snow |
|---|---|---|---|---|---|---|---|
| 1787824190 | 30° C | 74% | 1008.2 hPa | 0 mm | 3.58 m/s, 334° | 448 W/m² | - |
| 1787824129 | 30° C | 74% | 1008.3 hPa | 0 mm | 1.79 m/s, 84° | 449 W/m² | - |
| 1787824068 | 29.44° C | 75% | 1008.3 hPa | 0 mm | 0.45 m/s, 185° | 474 W/m² | - |
| 1787824007 | 29.44° C | 75% | 1008.2 hPa | 0 mm | 1.79 m/s, 359° | 478 W/m² | - |
| 1787823946 | 29.44° C | 75% | 1008.1 hPa | 0 mm | 1.34 m/s, 239° | 484 W/m² | - |
| 1787823885 | 29.44° C | 75% | 1008.3 hPa | 0 mm | 1.79 m/s, 278° | 460 W/m² | - |
| 1787823824 | 29.44° C | 76% | 1008.2 hPa | 0 mm | 0.89 m/s, 233° | 445 W/m² | - |
| 1787823763 | 29.44° C | 75% | 1008.5 hPa | 0 mm | 1.34 m/s, 295° | 435 W/m² | - |
| 1787823702 | 29.44° C | 76% | 1008.4 hPa | 0 mm | 0.89 m/s, 333° | 361 W/m² | - |
| 1787823641 | 29.44° C | 76% | 1008.3 hPa | 0 mm | 0.89 m/s, 224° | 425 W/m² | - |
| 1787823584 | 29.44° C | 76% | 1008.3 hPa | 0 mm | 1.34 m/s, 238° | 427 W/m² | - |
| 1787823519 | 29.44° C | 76% | 1008.5 hPa | 0 mm | 1.34 m/s, 227° | 404 W/m² | - |
| 1787823458 | 29.44° C | 76% | 1008.4 hPa | 0 mm | 3.13 m/s, 184° | 400 W/m² | - |
| 1787823397 | 29.44° C | 76% | 1008.4 hPa | 0 mm | 0.45 m/s, 70° | 387 W/m² | - |
| 1787823336 | 29.44° C | 76% | 1008.6 hPa | 0 mm | 1.34 m/s, 237° | 388 W/m² | - |
| 1787823275 | 29.44° C | 76% | 1008.4 hPa | 0 mm | 2.24 m/s, 244° | 383 W/m² | - |
| 1787823217 | 29.44° C | 76% | 1008.4 hPa | 0 mm | 0.89 m/s, 220° | 384 W/m² | - |
| 1787823153 | 29.44° C | 76% | 1008.4 hPa | 0 mm | 0.89 m/s, 301° | 378 W/m² | - |
| 1787823093 | 29.44° C | 76% | 1008.4 hPa | 0 mm | 1.79 m/s, 296° | 366 W/m² | - |
| 1787823031 | 30° C | 75% | 1008.5 hPa | 0 mm | 1.79 m/s, 320° | 383 W/m² | - |
| 1787822970 | 30° C | 75% | 1008.5 hPa | 0 mm | 2.68 m/s, 347° | 376 W/m² | - |
| 1787822909 | 30° C | 76% | 1008.3 hPa | 0 mm | 1.79 m/s, 324° | 383 W/m² | - |
| 1787822848 | 30° C | 75% | 1008.4 hPa | 0 mm | 4.92 m/s, 295° | 408 W/m² | - |
| 1787822787 | 29.44° C | 76% | 1008.4 hPa | 0 mm | 0.89 m/s, 327° | 420 W/m² | - |
| 1787822726 | 29.44° C | 76% | 1008.5 hPa | 0 mm | 0.89 m/s, 255° | 427 W/m² | - |
* Rain latest hour (hover to see other rain measurements)
** Current wind speed in m/s (hover to see current wind gust speed)